Wind_Speed
1 5 3 5 4 5 9 15 10 13 13 10 5 4 4 9 5 11 7 9 7 3 0 4 3 2 2 2 3 5 6 6 9 13 14 15 18 19 21 20 19 16 15 12 9 7 9 8 7
3 4 5 9 8 10 6 13 12 10 11 10 8 11 2 2 8 9 10 7 6 3 2 5 4 3 5 5 4 5 7 8 11 12 16 13 15 18 18 17 17 19 17 14 11 10 7 8 8
4 3 6 15 14 12 11 13 10 10 7 12 10 6 6 3 6 5 7 6 5 4 2 6 5 5 7 11 7 7 7 9 12 10 11 10 10 13 14 17 17 19 21 19 14 13 13 10 7
6 7 5 11 19 16 15 12 10 5 9 11 11 6 15 9 4 7 6 6 3 2 2 6 7 10 8 10 9 10 9 10 13 10 10 9 13 13 14 17 16 18 20 22 17 16 14 14 10
2 19 10 10 6 15 7 11 10 9 3 10 9 13 8 10 10 5 2 4 5 2 2 6 10 12 12 16 14 13 11 11 13 13 10 10 7 9 13 15 19 20 20 20 23 20 20 15 11
1 15 13 5 10 10 14 14 11 10 12 11 15 11 13 5 6 8 4 2 5 3 3 4 11 18 18 15 19 16 12 13 14 14 13 12 11 11 13 14 16 17 21 21 21 23 21 19 15
5 15 11 13 16 11 8 7 14 15 15 14 14 7 8 9 8 8 5 2 2 3 3 4 6 16 18 20 19 16 14 15 14 13 13 13 14 12 11 13 14 17 19 23 24 22 22 21 21
20 7 10 23 18 11 13 16 12 17 16 20 5 9 4 6 7 6 3 3 3 1 3 5 18 23 21 21 19 17 14 14 13 13 13 10 12 12 9 10 13 17 20 22 20 21 23 22 21
10 8 12 11 18 14 16 11 11 15 18 19 21 10 5 6 4 3 3 2 1 3 12 17 20 19 17 16 16 15 14 13 13 12 11 10 10 12 10 12 12 15 16 18 19 22 20 20 22
1 5 5 4 9 9 12 17 10 13 15 14 10 12 9 8 4 3 2 2 1 4 20 21 20 15 13 16 16 14 13 11 12 10 9 7 9 10 7 9 11 15 14 19 22 10 18 17 25
11 9 6 8 11 13 18 17 21 11 12 12 14 9 11 10 5 4 3 2 3 7 18 18 16 16 16 14 14 13 12 10 8 8 8 7 7 8 6 7 9 10 8 12 18 10 13 21 18
4 5 4 5 10 9 10 15 18 19 18 10 17 17 17 11 8 5 3 2 5 10 11 10 14 14 15 16 12 11 10 10 7 5 5 6 6 5 6 5 8 10 10 11 9 11 2 7 10
2 4 5 6 9 17 13 18 13 16 15 13 14 15 11 6 4 5 1 3 4 9 9 10 13 14 13 14 11 11 12 11 10 7 5 5 4 2 6 8 10 10 12 8 3 9 17 14 13
7 4 4 6 15 17 12 18 15 19 15 6 9 10 7 7 5 6 4 2 6 8 11 10 19 12 12 12 11 13 14 11 11 9 5 4 6 3 6 8 9 6 2 4 11 19 10 14 11
8 7 6 13 21 18 13 11 9 15 15 7 12 13 10 8 9 8 3 5 5 9 11 11 13 12 13 12 10 13 13 12 11 10 9 7 6 5 4 7 9 7 7 8 10 16 20 17 16
9 15 15 21 24 20 15 17 18 12 15 20 15 14 11 9 9 6 3 2 7 10 12 14 14 14 15 12 12 11 12 12 13 13 13 10 8 7 4 6 6 7 5 7 9 12 13 11 9
17 18 13 14 23 23 14 11 10 15 15 25 24 15 9 11 7 6 3 1 4 6 11 11 14 17 15 14 13 11 12 12 15 13 14 14 11 8 5 3 4 7 4 2 6 12 8 8 10
8 3 16 6 18 23 21 12 13 13 10 13 17 10 10 10 9 6 3 2 1 4 7 7 9 16 16 16 13 9 13 15 14 12 13 14 15 11 7 7 6 1 2 3 6 5 8 5 8
4 10 16 13 19 21 14 9 7 7 9 10 9 9 10 10 10 6 2 1 0 2 6 7 10 15 15 16 16 12 13 16 15 13 13 13 15 13 10 10 7 3 2 1 1 1 3 3 6
6 9 12 12 12 14 13 8 5 7 4 9 10 8 9 8 9 9 5 2 1 1 3 8 9 8 8 12 12 12 13 13 13 13 14 13 14 14 14 13 9 10 10 7 4 2 1 3 4
12 12 13 14 13 11 15 12 9 3 4 14 12 8 6 8 10 11 11 5 4 1 4 5 8 9 10 10 9 10 13 15 14 15 16 14 16 15 14 15 15 14 13 8 7 3 3 4 5
16 15 14 14 11 11 15 6 2 7 10 14 9 6 4 9 8 9 10 10 4 2 3 6 8 8 8 8 10 11 11 15 15 13 12 10 13 15 14 18 19 18 14 11 7 7 5 5 4
21 18 17 12 7 11 14 7 5 10 13 15 10 11 8 8 10 10 10 9 9 6 4 3 7 8 9 8 7 9 8 15 15 15 13 14 13 12 13 16 21 20 17 14 9 10 8 9 7
17 14 10 2 5 8 10 9 5 8 16 19 23 15 15 5 6 5 7 7 9 7 7 5 4 5 8 10 10 10 10 15 14 12 10 11 13 14 16 15 20 24 18 16 12 14 10 11 11
10 8 5 10 8 13 12 3 2 18 14 22 26 18 16 13 6 3 4 7 5 6 7 7 5 5 6 8 10 9 8 7 7 11 12 10 10 14 17 20 22 25 20 18 15 16 15 14 13
10 10 8 9 2 3 3 8 3 12 19 23 25 25 20 18 9 5 5 7 7 7 5 6 6 5 5 6 7 8 9 11 11 12 13 11 12 14 13 18 24 27 25 21 18 18 17 14 15
9 6 7 10 3 8 1 10 14 9 15 14 16 14 20 25 17 11 10 10 10 10 9 8 6 7 6 6 7 7 7 9 10 11 12 13 11 11 9 13 20 20 24 21 20 21 19 18 17
4 9 3 2 9 4 6 20 9 18 25 18 19 22 21 22 22 17 14 14 13 12 10 8 7 7 8 7 8 7 8 7 7 7 9 12 13 8 8 4 16 24 23 21 20 21 21 18 18
12 10 9 2 13 14 11 12 12 17 17 28 27 25 19 25 24 20 17 16 15 15 13 9 8 8 10 10 9 8 7 7 7 7 8 9 12 12 9 7 6 10 18 22 16 15 17 17 17
12 19 16 8 18 13 17 21 27 33 31 25 23 17 16 26 27 23 22 20 17 15 14 10 10 9 8 10 11 10 7 8 8 8 7 9 9 11 12 12 12 13 14 15 15 18 19 19 19
Wind_Direction
138 213 117 140 135 347 20 5 347 350 354 348 332 292 294 337 333 306 307 349 20 10 249 219 231 240 209 209 113 132 140 118 101 96 83 87 83 84 82 81 74 67 69 80 94 102 92 56 76
278 239 193 131 91 70 32 36 12 3 340 336 328 7 20 299 306 322 317 337 13 337 251 216 217 193 196 198 175 138 156 127 117 106 83 90 91 81 78 80 78 75 74 71 87 86 81 84 80
242 289 337 112 67 53 12 28 22 356 355 332 339 312 5 61 287 331 320 341 2 335 309 197 229 204 187 210 181 161 162 132 129 116 84 81 96 81 79 73 67 65 64 66 74 81 79 96 95
15 312 229 62 64 30 7 12 4 324 349 350 333 341 4 25 320 17 330 336 331 354 287 224 219 196 193 214 186 171 168 132 130 116 94 98 94 85 78 68 61 58 63 65 74 77 85 103 101
47 23 77 70 58 45 26 323 349 346 278 353 360 30 348 12 338 14 335 341 311 325 271 224 225 207 205 201 191 171 166 144 129 115 103 108 102 73 77 68 69 68 68 71 66 68 75 91 95
89 29 60 64 52 30 11 352 336 350 329 336 322 33 20 20 337 310 44 245 322 298 300 273 237 222 205 216 177 173 164 147 133 122 110 96 78 86 86 83 73 70 66 67 69 69 74 77 75
315 33 46 42 45 21 358 27 346 1 12 333 307 358 15 9 349 306 12 4 309 296 330 329 211 190 192 162 167 175 165 150 136 122 111 99 82 79 93 85 73 67 70 64 63 70 74 74 72
25 45 348 36 33 25 333 355 360 334 341 348 27 358 40 1 330 338 2 355 317 220 112 76 139 139 144 155 167 177 162 157 141 127 114 101 81 78 86 76 74 73 70 67 74 79 75 78 79
43 351 356 16 35 8 355 330 344 348 341 24 6 356 1 27 338 336 287 353 296 138 145 127 143 139 142 150 165 170 162 158 149 131 119 109 86 82 84 78 77 83 75 83 84 67 76 77 73
61 31 41 359 340 358 334 318 16 357 346 37 36 3 5 33 26 31 318 38 184 118 164 147 149 163 163 158 164 171 166 163 161 150 126 102 86 98 86 79 83 88 92 78 85 75 78 76 62
313 346 1 358 345 347 333 313 5 355 2 7 22 25 29 28 39 39 47 43 347 136 161 148 165 168 162 160 163 167 168 168 163 163 148 111 81 97 111 96 68 80 87 63 96 99 94 79 67
292 359 5 334 347 4 325 338 351 342 12 1 0 9 29 1 10 51 61 101 111 158 142 159 141 163 169 158 165 168 174 178 164 168 154 131 99 99 106 98 69 66 77 60 87 89 136 104 75
232 36 34 8 27 17 347 351 12 20 1 3 357 15 9 3 26 56 89 135 173 174 166 157 184 167 170 175 173 178 179 184 187 179 157 155 130 136 79 71 94 76 79 43 101 110 66 88 91
44 23 12 46 31 12 4 343 16 20 39 7 18 5 356 9 21 25 87 165 172 183 189 190 175 182 189 196 194 197 186 187 196 187 168 175 159 185 84 79 87 99 89 98 55 358 95 87 86
60 46 44 19 359 357 338 326 341 3 15 74 45 17 52 21 16 10 18 155 165 175 186 189 203 210 199 217 213 183 182 193 199 199 192 187 184 195 111 84 97 90 65 48 62 53 68 76 86
44 37 7 1 329 337 343 334 343 33 10 343 354 95 10 51 18 10 17 139 155 174 180 210 216 208 203 211 206 195 198 189 205 200 212 209 202 200 208 111 99 108 102 75 62 64 62 58 82
44 12 348 339 314 328 334 352 344 344 2 334 12 22 2 42 49 354 37 314 161 182 196 207 222 202 201 206 208 204 215 213 210 201 211 218 220 204 207 217 112 108 114 55 71 59 71 59 56
91 36 298 270 296 309 314 337 342 341 16 6 7 31 22 33 49 26 23 33 321 172 174 201 183 196 195 208 206 205 214 221 215 215 213 224 225 225 201 223 200 173 84 34 56 37 70 83 73
149 285 269 267 276 299 318 347 323 342 13 15 17 61 52 36 41 56 339 42 352 209 172 182 176 201 212 211 209 209 209 219 222 222 226 233 231 227 227 217 286 223 206 183 246 97 64 38 60
311 295 297 278 281 298 317 301 322 324 27 9 2 19 44 51 59 49 83 105 161 221 181 185 200 193 205 219 217 215 213 217 221 222 229 228 230 230 231 225 212 223 232 208 211 227 280 334 21
299 288 293 307 300 313 313 325 251 359 50 1 337 337 18 66 50 30 49 54 75 183 233 197 193 213 204 206 209 215 211 214 216 220 232 230 230 238 234 235 231 223 229 232 223 223 281 320 343
277 278 278 276 326 340 315 336 321 8 353 352 329 313 5 72 47 36 18 55 17 96 212 215 216 210 220 216 217 223 227 226 224 220 229 225 222 234 230 233 240 234 236 235 239 226 236 266 278
281 277 286 304 360 45 20 21 347 353 331 332 345 329 322 75 79 40 16 10 21 17 326 239 229 221 223 228 223 220 252 236 218 217 214 228 233 241 250 238 235 237 231 239 232 251 257 255 281
286 278 272 245 90 10 26 314 35 319 293 298 299 300 304 9 83 34 1 353 10 358 348 313 256 232 215 222 225 231 268 216 219 226 221 230 236 249 247 238 227 232 236 232 235 241 253 233 275
280 262 198 155 11 324 63 21 4 304 291 284 301 317 309 309 16 355 333 322 335 322 342 330 307 250 231 219 228 226 220 198 203 211 227 240 262 283 249 237 233 232 234 234 232 243 242 247 258
298 253 201 169 314 248 334 240 185 275 287 300 310 307 301 297 307 312 304 299 301 286 275 276 287 288 238 223 222 230 228 229 230 233 239 245 261 280 254 246 235 231 224 224 232 240 246 253 258
310 302 213 206 348 298 15 309 278 202 238 262 267 247 264 289 295 294 295 296 294 290 284 263 283 291 285 245 222 215 218 231 237 237 240 241 238 266 271 271 228 226 220 222 226 235 240 248 255
44 10 319 204 279 217 285 299 256 239 263 241 229 248 278 277 289 290 286 292 294 286 278 263 259 269 276 273 251 231 224 223 232 227 237 238 237 267 276 273 229 214 209 228 232 239 242 246 247
310 318 303 256 239 251 253 301 300 271 247 217 222 237 265 279 289 288 277 279 283 282 276 270 257 254 255 263 263 247 232 236 245 252 239 237 240 249 249 241 181 201 220 230 238 252 250 241 248
266 236 262 225 201 236 265 287 275 276 289 261 232 231 235 261 268 283 274 270 270 275 272 263 257 253 248 250 249 257 247 236 251 265 258 254 249 251 250 241 231 225 230 232 238 244 244 247 252
Height
5915 5914 5919 5921 5924 5920 5917 5918 5916 5912 5911 5911 5909 5906 5910 5911 5911 5914 5910 5910 5912 5911 5913 5914 5915 5916 5917 5917 5918 5919 5920 5921 5922 5922 5919 5919 5918 5917 5915 5915 5915 5914 5912 5910 5907 5906 5907 5907 5907
5914 5914 5915 5918 5919 5915 5920 5919 5916 5913 5909 5911 5908 5910 5911 5910 5909 5910 5909 5909 5909 5911 5912 5913 5915 5916 5917 5917 5919 5921 5923 5924 5924 5923 5921 5921 5921 5919 5917 5916 5916 5915 5913 5910 5908 5908 5909 5908 5908
5915 5916 5911 5910 5917 5919 5920 5919 5917 5915 5912 5909 5907 5907 5911 5913 5907 5911 5908 5907 5909 5911 5912 5913 5914 5916 5917 5917 5920 5922 5924 5925 5925 5924 5923 5922 5922 5921 5919 5919 5918 5917 5915 5912 5910 5909 5909 5909 5908
5924 5923 5921 5926 5917 5916 5920 5920 5916 5913 5912 5912 5909 5906 5905 5909 5907 5910 5908 5907 5909 5910 5911 5912 5914 5915 5917 5917 5921 5922 5925 5926 5925 5925 5925 5925 5924 5923 5922 5922 5920 5918 5916 5914 5912 5910 5909 5906 5906
5922 5923 5917 5924 5917 5915 5922 5920 5917 5916 5909 5913 5910 5910 5908 5906 5907 5910 5910 5907 5907 5908 5911 5911 5912 5914 5916 5917 5921 5923 5926 5927 5926 5926 5926 5926 5926 5926 5925 5924 5922 5919 5917 5917 5916 5914 5911 5910 5908
5920 5920 5919 5921 5919 5922 5922 5921 5919 5917 5916 5911 5908 5904 5905 5908 5906 5908 5910 5908 5906 5908 5908 5908 5908 5910 5913 5916 5921 5923 5927 5927 5926 5927 5927 5927 5927 5927 5927 5925 5923 5921 5920 5918 5916 5915 5914 5913 5913
5923 5921 5921 5922 5919 5922 5918 5917 5918 5918 5917 5914 5910 5905 5905 5906 5906 5906 5907 5907 5907 5908 5907 5907 5904 5906 5911 5915 5921 5924 5927 5927 5927 5928 5928 5928 5929 5930 5928 5927 5925 5925 5924 5923 5920 5918 5917 5917 5917
5923 5924 5922 5922 5920 5924 5920 5917 5916 5916 5910 5908 5908 5909 5906 5907 5905 5907 5908 5907 5908 5909 5908 5906 5906 5908 5912 5917 5921 5925 5928 5928 5928 5930 5930 5930 5931 5931 5929 5929 5929 5929 5927 5926 5924 5923 5921 5918 5917
5925 5926 5923 5921 5921 5925 5921 5918 5918 5914 5909 5910 5912 5911 5908 5907 5907 5906 5907 5909 5909 5909 5910 5909 5910 5912 5915 5920 5923 5927 5929 5930 5930 5931 5931 5932 5932 5932 5931 5931 5930 5930 5928 5928 5928 5928 5925 5922 5920
5927 5927 5925 5927 5924 5924 5920 5916 5912 5916 5910 5910 5914 5911 5906 5906 5907 5906 5907 5908 5909 5908 5909 5912 5914 5915 5919 5922 5924 5928 5930 5931 5931 5932 5933 5934 5934 5934 5933 5933 5931 5932 5929 5931 5930 5927 5928 5925 5924
5926 5925 5926 5926 5925 5924 5920 5913 5916 5918 5916 5910 5911 5914 5905 5904 5907 5907 5908 5908 5908 5909 5910 5914 5917 5918 5921 5923 5926 5928 5931 5932 5933 5934 5935 5935 5936 5936 5935 5934 5935 5934 5931 5934 5931 5928 5927 5923 5925
5927 5927 5927 5927 5926 5925 5918 5916 5920 5914 5916 5911 5908 5905 5902 5903 5905 5908 5908 5908 5909 5911 5914 5916 5918 5920 5922 5925 5926 5929 5932 5934 5935 5936 5938 5937 5937 5937 5937 5937 5939 5937 5937 5934 5934 5928 5924 5915 5929
5926 5927 5927 5928 5926 5925 5921 5918 5919 5916 5914 5912 5912 5909 5909 5907 5907 5908 5908 5909 5911 5912 5914 5917 5919 5921 5922 5923 5926 5929 5931 5934 5935 5936 5939 5939 5938 5937 5940 5939 5941 5940 5937 5935 5936 5937 5934 5934 5936
5927 5927 5927 5927 5926 5926 5924 5919 5918 5917 5916 5915 5913 5913 5914 5909 5907 5906 5908 5909 5911 5913 5915 5917 5919 5922 5923 5923 5926 5928 5930 5933 5936 5937 5939 5941 5939 5938 5940 5943 5942 5940 5938 5939 5939 5928 5938 5937 5934
5926 5927 5926 5926 5926 5926 5924 5924 5920 5918 5914 5914 5912 5912 5913 5913 5907 5906 5907 5910 5911 5912 5914 5917 5919 5921 5923 5923 5926 5927 5930 5932 5935 5937 5939 5941 5940 5938 5940 5944 5945 5945 5945 5940 5942 5943 5936 5938 5937
5926 5924 5923 5925 5927 5925 5924 5922 5917 5918 5915 5911 5910 5898 5913 5912 5910 5910 5910 5910 5911 5912 5914 5916 5918 5919 5922 5923 5925 5927 5929 5931 5934 5936 5939 5940 5941 5939 5940 5944 5945 5946 5946 5945 5945 5943 5940 5940 5944
5924 5926 5925 5927 5926 5924 5924 5923 5921 5916 5916 5907 5908 5906 5911 5909 5911 5912 5910 5910 5911 5912 5913 5914 5915 5917 5920 5923 5925 5927 5929 5931 5934 5936 5938 5940 5940 5941 5941 5942 5944 5946 5946 5946 5944 5942 5943 5943 5945
5923 5929 5929 5928 5926 5923 5923 5923 5923 5919 5918 5914 5914 5913 5913 5911 5912 5911 5912 5910 5911 5911 5912 5912 5913 5916 5919 5922 5924 5926 5928 5930 5933 5935 5937 5938 5940 5941 5943 5943 5940 5943 5946 5945 5944 5945 5944 5941 5941
5924 5927 5925 5926 5925 5924 5923 5922 5922 5921 5918 5918 5918 5918 5917 5913 5912 5913 5912 5912 5912 5912 5912 5913 5913 5916 5918 5919 5921 5924 5926 5928 5931 5933 5934 5936 5938 5941 5943 5944 5941 5944 5945 5946 5945 5947 5948 5946 5945
5923 5923 5923 5923 5923 5921 5920 5921 5920 5920 5919 5917 5918 5917 5916 5916 5914 5914 5915 5913 5912 5912 5912 5913 5913 5914 5916 5918 5920 5922 5924 5926 5928 5930 5932 5935 5935 5938 5940 5943 5945 5946 5945 5944 5947 5948 5948 5948 5946
5921 5920 5920 5920 5919 5920 5918 5918 5918 5918 5918 5918 5918 5916 5916 5917 5913 5912 5913 5912 5911 5912 5912 5913 5913 5913 5915 5917 5918 5920 5922 5924 5926 5927 5929 5932 5934 5936 5938 5940 5942 5944 5943 5945 5946 5948 5947 5947 5946
5918 5918 5917 5916 5918 5919 5917 5917 5915 5915 5915 5916 5917 5917 5916 5916 5914 5913 5912 5915 5912 5911 5912 5912 5912 5912 5913 5914 5916 5917 5919 5921 5923 5926 5928 5930 5932 5934 5936 5937 5938 5940 5943 5944 5946 5946 5946 5946 5945
5914 5914 5915 5916 5917 5918 5916 5915 5914 5911 5912 5915 5917 5917 5916 5915 5915 5914 5912 5912 5911 5910 5909 5910 5911 5911 5911 5912 5913 5915 5916 5918 5921 5922 5926 5928 5931 5932 5933 5934 5935 5935 5940 5942 5943 5943 5943 5944 5944
5910 5911 5912 5915 5915 5916 5915 5914 5910 5912 5913 5914 5915 5917 5914 5913 5915 5915 5913 5911 5911 5910 5909 5909 5908 5909 5910 5911 5911 5912 5913 5913 5918 5920 5923 5925 5927 5929 5929 5931 5931 5932 5936 5938 5940 5940 5940 5940 5941
5908 5908 5910 5913 5911 5911 5913 5915 5913 5914 5915 5914 5914 5914 5913 5910 5914 5914 5913 5911 5911 5910 5909 5908 5907 5907 5907 5908 5909 5910 5912 5914 5916 5918 5920 5922 5923 5924 5924 5925 5926 5926 5931 5935 5937 5937 5938 5939 5940
5907 5907 5908 5907 5909 5911 5913 5915 5913 5915 5914 5913 5911 5909 5909 5906 5912 5912 5911 5910 5909 5910 5909 5909 5908 5906 5906 5906 5906 5907 5909 5912 5914 5916 5917 5919 5920 5917 5918 5919 5921 5922 5926 5930 5932 5934 5935 5936 5937
5907 5906 5907 5907 5910 5912 5913 5913 5914 5915 5915 5912 5912 5910 5907 5902 5907 5910 5909 5908 5907 5905 5905 5904 5903 5904 5904 5905 5905 5906 5907 5909 5910 5912 5913 5914 5916 5915 5914 5912 5916 5919 5921 5927 5927 5929 5931 5933 5933
5907 5907 5908 5907 5907 5909 5911 5909 5913 5912 5904 5907 5909 5906 5905 5903 5902 5906 5907 5905 5905 5904 5903 5901 5900 5901 5902 5903 5903 5904 5905 5906 5907 5909 5910 5911 5912 5912 5911 5910 5912 5912 5917 5921 5922 5924 5927 5929 5929
5904 5906 5904 5906 5907 5907 5907 5909 5904 5902 5901 5901 5901 5903 5904 5902 5900 5903 5903 5903 5902 5902 5901 5899 5899 5899 5899 5900 5901 5902 5903 5904 5905 5906 5907 5908 5909 5909 5909 5911 5911 5914 5916 5919 5916 5918 5920 5922 5923
5900 5899 5894 5895 5898 5902 5902 5903 5901 5900 5896 5899 5898 5897 5899 5898 5897 5897 5899 5900 5899 5899 5898 5897 5897 5897 5896 5897 5898 5899 5900 5901 5902 5903 5904 5906 5906 5906 5907 5908 5909 5910 5911 5913 5914 5916 5917 5918 5919